GEFSMA_con_prob3kmehi_264.txt.gz
EHI
3 2 2 1 0 0 1 3 5 3 1 0 0 0 0 0 0 0 0 1 3 4 4 2 1 0 0 0 0 0 0 0 0 0 0 0 0 0 0 0 0 0 0
2 1 1 1 0 1 3 4 4 2 1 0 0 0 0 0 0 0 0 1 2 2 1 1 1 1 0 0 0 1 1 1 0 0 0 0 0 0 0 0 0 0 0
2 1 1 1 1 2 4 4 2 1 0 0 0 0 0 0 0 0 0 0 0 0 0 0 0 1 1 0 0 1 2 1 0 0 0 0 0 0 0 0 0 0 0
3 3 2 1 1 2 3 1 0 0 0 0 0 0 0 0 0 0 0 0 0 0 0 1 1 0 0 0 0 1 1 1 0 0 0 0 0 0 0 0 0 0 0
4 3 2 1 1 1 1 0 0 0 0 0 0 0 0 0 0 0 0 0 0 0 0 1 2 1 1 0 0 0 0 0 0 0 0 0 0 0 0 0 0 0 0
2 2 2 2 1 0 0 0 0 0 0 0 0 0 0 0 0 0 0 0 0 0 0 1 2 2 2 1 0 0 0 0 0 0 1 1 1 1 1 1 0 0 0
1 0 1 1 1 0 0 0 0 0 0 0 0 0 0 0 0 0 0 0 0 0 0 0 1 2 2 2 1 1 0 0 0 1 3 3 3 3 3 2 1 1 1
1 0 0 0 1 1 1 1 0 0 0 0 0 0 0 0 0 0 0 0 0 0 0 0 1 2 2 2 2 1 0 0 0 2 3 4 5 5 4 4 3 3 2
3 2 1 1 1 1 2 1 0 0 0 0 0 0 0 0 0 0 0 1 0 0 0 0 1 1 1 1 2 1 0 0 0 1 1 2 3 4 5 5 5 4 4
6 6 5 4 3 3 3 2 1 1 0 0 1 1 1 0 0 0 0 1 1 0 0 0 0 0 0 1 1 0 0 0 0 0 0 0 1 1 2 4 5 5 5
8 8 8 7 7 6 5 4 3 3 2 2 1 1 2 2 1 1 0 1 2 1 0 0 0 0 0 1 1 0 0 0 0 0 0 0 0 0 1 2 3 3 3
9 9 9 9 9 7 6 5 5 5 4 4 4 3 3 4 4 4 2 2 2 2 1 1 0 0 0 1 1 0 0 0 0 0 0 0 0 0 0 1 1 1 1
8 8 9 10 10 8 5 5 5 6 6 6 7 6 5 5 7 8 5 3 2 3 3 1 0 0 0 0 0 0 0 0 0 0 0 0 0 0 0 1 1 0 0
6 7 9 10 11 9 6 5 5 6 7 7 6 6 5 6 8 8 7 5 4 3 2 1 0 0 0 1 1 1 1 0 0 0 0 0 0 0 0 0 0 0 0
5 7 9 10 11 10 8 7 6 7 7 6 5 6 6 7 7 7 7 8 6 3 1 0 0 0 1 2 2 2 1 0 0 0 0 0 0 0 0 0 0 0 0
6 7 9 10 11 11 11 10 8 8 8 8 7 7 7 8 8 7 7 9 7 4 2 1 1 2 3 3 3 2 1 0 0 0 0 0 0 0 0 0 0 0 0
8 8 8 10 11 11 13 13 11 9 9 10 10 9 8 9 8 7 6 7 7 5 4 3 3 4 5 4 3 2 1 0 0 0 0 0 0 0 0 0 0 0 0
9 8 8 8 9 11 14 15 13 10 9 11 12 11 9 9 9 7 5 6 6 6 6 5 5 6 6 4 3 2 1 0 0 0 0 0 0 0 0 0 0 0 0
9 10 9 8 9 11 13 13 12 10 10 11 12 11 10 10 9 8 6 5 6 6 6 6 6 6 6 5 4 3 1 0 0 0 0 0 0 0 0 0 0 0 0
11 12 13 11 10 11 11 12 11 10 10 12 13 12 10 9 9 9 7 6 6 6 6 6 6 6 6 6 5 4 1 0 0 0 0 0 0 0 0 0 0 0 0
12 14 14 12 11 10 10 11 11 11 11 14 15 12 11 10 8 7 6 6 6 6 6 6 6 6 6 6 6 5 3 1 0 0 0 0 0 0 0 0 0 0 0
14 16 15 13 11 9 8 7 10 13 16 18 18 15 12 11 9 6 5 4 4 5 6 6 6 6 6 6 6 6 4 1 0 0 0 0 0 0 0 0 0 0 0
22 22 20 16 13 9 5 3 6 13 20 23 23 19 16 13 11 8 6 4 3 3 5 6 6 6 6 6 6 5 3 1 0 0 0 0 0 0 0 0 0 0 0
29 28 25 21 18 13 5 1 4 13 21 25 25 22 20 16 12 11 9 6 4 3 4 5 5 4 4 4 4 3 2 1 0 0 0 0 0 0 0 0 0 0 0
31 29 26 25 24 18 8 1 5 14 23 25 26 23 20 15 10 9 11 10 6 4 3 2 2 1 1 1 1 1 1 0 0 0 0 0 0 0 0 0 0 0 0
29 27 25 27 27 22 11 2 5 15 23 27 27 23 17 11 7 7 11 12 9 5 2 1 0 0 0 0 0 0 0 0 0 0 0 0 0 0 0 0 0 0 0

GEFSMA_con_prob3kmehi_270.txt.gz
EHI
2 4 8 7 3 1 3 5 4 4 5 4 3 3 2 1 0 0 1 2 4 6 5 2 1 1 0 1 2 1 0 0 1 1 1 0 0 0 0 0 0 0 0
5 6 7 6 4 3 4 5 4 4 4 3 3 3 2 1 0 0 1 2 4 5 5 3 2 1 0 1 2 2 1 0 0 0 0 0 0 0 0 0 0 0 0
7 7 6 5 5 5 5 4 4 4 3 1 1 3 3 1 0 1 2 3 3 4 5 4 2 1 0 1 2 2 1 0 0 0 0 0 0 0 0 0 0 0 0
9 8 6 5 4 4 4 3 3 3 2 1 1 3 4 3 1 1 2 4 4 4 5 4 3 1 0 1 2 2 1 0 0 0 0 0 0 0 0 0 0 0 0
10 9 7 5 4 3 3 3 2 2 2 2 2 3 4 4 4 2 2 4 5 6 5 5 5 3 1 1 1 1 0 0 1 0 0 0 0 0 0 0 0 0 0
9 9 8 6 5 3 4 4 4 3 3 2 1 2 4 5 6 5 3 4 6 8 8 6 5 4 3 3 2 1 1 1 1 1 1 1 1 1 0 1 1 1 0
7 9 9 9 8 6 6 5 5 5 3 1 0 1 4 6 6 6 5 4 6 10 11 9 6 6 6 5 4 3 2 2 2 2 2 2 2 1 1 1 2 1 1
11 11 13 13 13 13 11 9 9 7 4 2 2 2 4 6 7 6 6 5 6 9 11 11 12 11 11 10 7 4 3 3 3 3 3 2 2 1 0 1 1 1 1
17 15 14 15 17 18 16 15 14 12 9 7 7 6 5 6 7 7 7 7 7 9 12 14 18 19 17 14 10 6 4 3 3 2 1 1 1 0 0 0 0 0 1
21 19 15 16 18 17 16 17 17 16 14 13 14 12 8 6 6 7 9 9 11 14 15 16 19 21 19 15 11 7 4 2 1 1 0 0 0 0 0 0 0 1 1
23 21 19 19 20 18 17 19 18 16 15 14 15 15 13 11 10 10 11 12 15 17 16 16 16 15 14 12 10 8 4 1 0 0 0 0 0 0 0 0 0 1 2
25 24 22 24 26 24 22 23 20 15 13 12 12 12 12 14 15 13 12 12 13 14 15 16 15 13 12 10 8 6 3 1 0 0 0 0 0 0 0 0 0 1 1
23 23 23 26 28 27 24 24 23 19 16 14 13 12 10 12 14 14 13 10 9 12 16 18 17 15 14 12 8 5 2 0 0 0 0 0 0 0 0 0 0 0 0
19 21 23 26 27 26 24 24 25 23 21 20 18 16 13 11 10 12 13 11 9 10 15 18 18 15 14 11 7 3 1 0 0 0 0 0 0 0 0 0 0 0 0
18 21 24 26 27 27 24 23 25 24 23 22 21 21 19 15 11 11 14 15 13 12 13 16 16 13 12 9 5 3 1 0 0 0 0 0 0 0 0 0 0 0 0
19 21 24 25 26 26 23 22 24 23 21 21 22 23 22 19 14 13 15 16 15 14 13 14 13 12 10 8 5 3 1 0 0 0 0 0 0 0 0 0 0 0 0
20 21 23 23 23 23 23 22 22 21 20 21 21 21 20 18 18 17 16 16 16 16 15 13 12 11 10 8 6 3 1 0 0 0 0 0 0 0 0 0 0 0 0
23 22 23 23 22 22 23 22 20 18 19 20 21 19 18 19 21 21 19 17 16 16 16 15 12 11 10 9 7 4 2 1 0 0 0 0 0 0 0 0 0 0 0
27 25 24 24 23 22 21 20 19 17 18 20 22 22 22 23 24 22 21 20 17 16 17 17 13 11 10 9 8 5 3 2 1 0 0 0 0 0 0 0 0 0 0
31 30 28 27 24 21 20 20 19 18 20 23 25 27 26 24 23 21 21 22 20 18 18 17 14 11 9 8 8 5 3 3 1 0 0 0 0 0 0 0 0 0 0
36 35 34 31 26 20 18 20 21 21 24 27 29 30 26 21 18 16 16 19 20 18 17 16 15 12 9 8 7 5 4 3 2 1 0 0 0 0 0 0 0 0 0
39 39 38 35 29 22 16 16 19 23 26 29 32 31 25 17 13 11 10 10 12 13 13 12 13 13 12 9 8 6 4 3 3 2 1 0 0 0 0 0 0 0 0
42 42 41 38 33 25 16 11 13 21 27 30 31 30 25 17 13 12 10 8 8 8 7 8 9 11 12 12 10 7 5 4 4 3 1 0 0 0 0 0 0 0 0
43 43 41 40 36 28 17 8 9 19 26 28 29 27 25 20 15 14 14 13 12 8 4 3 4 6 8 10 10 8 6 5 4 2 1 0 0 0 0 0 0 0 0
42 40 39 39 37 29 18 8 9 19 25 27 26 23 23 20 14 12 14 17 16 11 5 2 2 2 3 5 7 8 6 5 3 2 1 0 0 0 0 0 0 0 0
40 37 36 39 38 31 19 8 8 18 25 26 25 22 19 17 12 10 14 18 18 13 7 4 1 0 0 1 4 6 6 4 2 1 1 1 0 0 0 0 0 0 0

GEFSMA_con_prob3kmehi_276.txt.gz
EHI
0 0 0 0 0 0 0 0 0 1 1 1 0 0 0 0 0 0 2 6 7 5 4 4 5 4 3 2 1 0 0 0 0 0 0 0 0 0 0 0 0 0 0
0 0 0 0 0 0 0 0 0 0 0 0 0 0 0 0 0 0 1 4 5 4 4 5 5 4 3 1 0 0 0 0 0 0 0 0 0 0 0 0 0 0 0
1 0 0 0 0 0 0 0 0 0 0 0 0 0 0 0 0 0 0 1 2 3 4 6 6 5 4 3 1 0 0 0 0 0 0 0 0 0 0 0 0 0 0
2 1 1 1 1 0 0 0 0 0 0 0 0 0 0 0 0 0 0 0 0 1 2 5 7 6 5 4 2 1 1 1 0 0 0 0 0 0 0 0 0 0 0
3 2 2 2 1 0 0 0 0 0 0 0 0 0 0 0 0 0 0 0 0 0 1 3 5 5 4 5 4 4 3 2 1 0 0 0 0 0 0 0 0 0 0
3 2 2 2 1 0 0 0 0 0 0 0 0 0 0 0 0 0 0 0 1 1 0 1 2 2 4 7 7 7 6 5 3 1 1 1 0 0 0 0 0 0 0
2 2 2 2 1 0 0 0 0 0 0 0 0 0 0 0 0 0 0 1 2 2 1 0 0 0 2 5 8 9 9 8 6 4 3 2 1 0 0 0 0 0 0
2 3 4 3 2 1 0 0 0 0 0 0 0 0 0 0 0 0 0 1 2 3 2 1 1 1 1 2 4 7 9 8 7 5 4 3 2 1 0 0 0 0 0
5 5 5 5 4 3 2 0 0 0 0 0 0 0 0 0 0 0 0 1 2 3 3 3 2 2 1 1 2 4 6 6 6 6 4 3 2 1 0 0 0 0 0
6 5 5 5 6 6 4 2 1 1 1 0 0 0 0 0 0 0 0 0 1 2 3 3 3 2 2 1 2 3 3 3 3 4 3 2 1 0 0 0 0 0 0
5 4 4 4 5 6 6 6 4 3 2 1 0 0 0 0 0 0 0 0 1 1 1 2 2 3 2 1 1 2 2 1 1 2 1 0 0 0 0 0 0 0 0
3 3 4 4 4 6 8 9 8 6 4 2 1 1 0 0 0 0 0 0 0 0 0 1 1 3 2 1 1 1 1 0 0 0 0 0 0 0 0 0 0 0 0
4 4 4 5 5 7 9 10 10 8 5 3 3 2 1 0 0 0 1 1 0 0 0 0 1 2 2 1 0 0 0 0 0 0 0 0 0 0 0 0 0 0 0
5 5 4 4 4 6 8 8 9 8 7 5 4 2 1 0 0 1 2 2 1 0 0 1 1 1 2 1 0 0 0 0 0 0 0 0 0 0 0 0 0 0 0
6 6 6 4 3 5 6 8 9 9 9 7 5 3 2 1 1 2 3 2 2 1 0 1 1 1 2 1 0 0 0 0 0 0 0 0 0 0 0 0 0 0 0
8 9 9 7 5 5 8 9 10 11 10 8 6 5 3 3 2 2 2 1 2 2 1 1 1 1 2 1 0 0 0 0 0 0 0 0 0 0 0 0 0 0 0
10 11 11 9 7 7 8 10 12 13 11 9 7 6 5 4 4 2 1 1 2 3 2 1 0 0 1 1 0 0 0 0 0 0 0 0 0 0 0 0 0 0 0
12 12 12 11 9 8 8 10 13 14 13 10 8 6 4 3 3 2 1 1 3 3 3 1 1 1 0 0 0 0 0 0 0 0 0 0 0 0 0 0 0 0 0
12 12 12 12 11 10 9 10 13 15 14 12 9 6 3 1 1 2 3 4 4 4 3 3 2 2 1 0 0 0 0 0 0 0 0 0 0 0 0 0 0 0 0
12 12 13 14 14 13 12 13 14 15 13 11 9 7 3 1 2 3 6 8 7 6 4 4 3 3 2 1 1 1 0 0 0 0 0 0 0 0 0 0 0 0 0
15 15 15 16 17 16 15 14 14 14 14 11 9 8 6 5 4 4 6 8 8 7 6 5 4 3 2 1 2 1 0 0 0 0 0 0 0 0 0 0 0 0 0
19 20 19 18 17 16 14 12 11 12 13 13 11 9 9 9 7 5 4 4 6 7 7 5 3 2 1 1 2 2 1 0 0 0 0 0 0 0 0 0 0 0 0
21 23 23 21 18 16 13 10 8 9 12 14 14 12 9 8 7 5 3 3 3 4 4 3 1 1 0 0 1 2 1 0 0 0 0 0 0 0 0 0 0 0 0
21 23 24 22 20 18 14 10 7 7 9 12 14 13 10 7 5 4 4 4 3 2 1 1 0 0 0 0 1 1 1 0 0 0 0 0 0 0 0 0 0 0 0
20 21 22 21 20 18 15 9 6 6 8 10 12 12 9 7 5 4 4 4 3 2 1 0 0 0 0 0 0 0 0 0 0 0 0 0 0 0 0 0 0 0 0
18 19 19 19 19 17 14 8 5 7 9 11 11 10 7 6 5 3 3 4 4 3 2 1 0 0 0 0 0 0 0 0 0 0 0 0 0 0 0 0 0 0 0

GEFSMA_con_prob3kmehi_282.txt.gz
EHI
0 0 0 0 0 0 0 0 0 0 0 0 0 0 0 0 0 0 0 0 0 1 2 1 0 0 0 0 0 0 0 0 0 0 0 0 0 0 0 0 0 0 0
0 0 0 0 0 0 0 0 0 0 0 0 0 0 0 0 0 0 0 0 0 1 2 1 0 0 0 0 0 0 0 0 0 0 0 0 0 0 0 0 0 0 0
0 0 0 0 0 0 0 0 0 0 0 0 0 0 0 0 0 0 0 0 0 0 1 1 0 0 0 0 0 0 0 0 0 0 0 0 0 0 0 0 0 0 0
0 0 0 0 0 0 0 0 0 0 0 0 0 0 0 0 0 0 0 0 0 0 0 0 1 1 1 0 0 0 0 0 1 1 0 0 0 0 0 0 0 0 0
0 0 0 0 0 0 0 0 0 0 0 0 0 0 0 0 0 0 0 0 0 0 0 1 2 2 1 0 0 0 0 1 3 3 2 1 1 1 0 0 0 0 0
0 0 0 0 0 0 0 0 0 0 0 0 0 0 0 0 0 0 0 0 0 0 0 1 1 1 0 0 0 0 1 3 5 5 5 4 3 2 1 0 0 0 0
0 0 0 0 0 0 0 0 0 0 0 0 0 0 0 0 0 0 0 0 0 1 1 1 1 0 0 0 0 1 2 4 5 6 6 4 3 2 1 0 0 0 0
0 1 1 0 0 0 0 0 0 0 0 0 0 0 0 0 0 0 0 0 1 2 2 2 1 0 0 0 0 1 2 3 4 5 5 3 1 1 1 0 0 0 0
1 2 3 2 1 1 1 2 2 1 0 0 0 0 0 0 0 0 0 0 1 2 3 3 2 1 0 0 0 0 1 1 3 3 3 1 0 0 0 0 0 0 0
2 3 5 5 4 4 5 5 5 3 2 1 1 1 1 1 0 0 0 0 0 1 3 3 3 2 0 0 0 0 0 1 1 1 1 0 0 0 0 0 0 0 0
2 3 5 6 5 6 6 6 6 4 3 3 3 3 3 3 2 2 1 0 0 1 2 3 2 1 0 0 0 0 0 0 0 0 0 0 0 0 0 0 0 0 0
1 2 3 4 4 4 5 5 5 5 5 5 5 4 4 4 4 3 2 0 0 0 1 2 1 0 0 0 0 0 0 0 0 0 0 0 0 0 0 0 0 0 0
1 1 3 3 3 4 4 4 5 5 5 5 5 4 3 3 4 3 2 1 0 0 0 0 0 0 0 0 0 0 0 0 0 0 0 0 0 0 0 0 0 0 0
3 3 4 4 5 5 6 5 5 4 4 4 4 4 3 3 3 3 3 2 1 0 0 0 0 0 0 0 0 0 0 0 0 0 0 0 0 0 0 0 0 0 0
4 4 5 6 6 6 5 5 4 2 2 3 4 4 4 4 3 4 4 3 1 1 1 1 0 0 0 0 0 0 0 0 0 0 0 0 0 0 0 0 0 0 0
5 5 5 6 6 5 3 3 2 1 2 3 4 4 4 4 4 5 5 3 1 2 2 1 0 0 0 0 0 0 0 0 0 0 0 0 0 0 0 0 0 0 0
6 5 5 6 5 4 2 1 1 2 4 5 6 5 4 3 4 6 6 3 2 3 3 1 0 0 0 0 0 0 0 0 0 0 0 0 0 0 0 0 0 0 0
7 6 5 4 4 3 2 1 0 3 6 7 7 6 4 2 4 6 6 4 4 4 3 2 1 0 0 0 0 0 0 0 0 0 0 0 0 0 0 0 0 0 0
8 7 5 5 4 4 3 2 2 5 8 9 8 8 7 6 6 7 8 7 6 6 5 3 2 1 0 0 0 0 0 0 0 0 0 0 0 0 0 0 0 0 0
8 9 9 8 7 6 5 3 4 7 10 11 10 12 12 10 7 7 9 9 9 9 6 4 3 2 1 0 0 0 0 0 0 0 0 0 0 0 0 0 0 0 0
7 9 11 10 9 8 7 6 6 8 10 12 12 13 13 10 7 6 6 8 10 11 8 6 5 3 1 0 0 0 0 0 0 0 0 0 0 0 0 0 0 0 0
5 8 10 9 8 8 8 7 6 8 10 12 13 13 11 9 6 4 3 4 7 8 8 8 8 5 2 1 0 1 0 0 0 0 0 0 0 0 0 0 0 0 0
5 6 6 6 6 7 7 6 5 7 10 11 12 11 10 8 6 4 3 2 3 3 5 8 9 7 4 1 0 0 0 0 0 0 0 0 0 0 0 0 0 0 0
7 5 5 4 5 6 6 4 3 4 8 10 10 9 9 7 5 3 3 2 2 1 2 4 5 5 4 2 1 1 1 0 0 0 0 0 0 0 0 0 0 0 0
7 6 5 5 6 6 5 3 2 3 6 7 8 7 6 5 3 2 2 2 1 1 0 1 1 2 2 1 1 2 2 1 0 0 0 0 0 0 0 0 0 0 0
5 5 5 5 6 6 4 3 3 3 5 6 6 4 3 4 3 1 1 2 2 1 0 0 0 1 1 1 1 2 3 2 1 0 0 0 0 0 0 0 0 0 0